Weather History for KRYY - December, 2013

Change the Weather History Date:

Saturday, December 21, 2013

  Actual Average (KVPC) Record (KVPC)
Temperature  
Mean Temperature 62 °F 42 °F  
Max Temperature 69 °F 52 °F 71 °F (2013)
Min Temperature 55 °F 31 °F 17 °F (2003)
Degree Days  
Heating Degree Days 3 23  
Month to date heating degree days 453  
Since 1 July heating degree days 1062  
Growing Degree Days 12 (Base 50)    
Moisture  
Dew Point 60 °F    
Average Humidity 84    
Maximum Humidity 94    
Minimum Humidity 78    
Precipitation  
Precipitation 0.00 in 0.11 in 2.12 in (1951)
Month to date precipitation 3.21  
Year to date precipitation 48.90  
Sea Level Pressure  
Sea Level Pressure 29.99 in    
Wind  
Wind Speed 9 mph (SSE)    
Max Wind Speed 14 mph    
Max Gust Speed 23 mph    
Visibility 6 miles    
Events Rain    
T = Trace of Precipitation, MM = Missing Value Source: NWS Daily Summary

Daily Weather History Graph

Daily Weather History Graph

Search for Another Location

Airport or City:

Trip Planner

Search our weather history database for the weather conditions in past years. The results will help you decide how hot, cold, wet, or windy it might be!

Date:

Astronomy

Dec. 21, 2013 Rise Set
Actual Time 7:40 AM EST 5:33 PM EST
Civil Twilight 7:12 AM EST 6:01 PM EST
Nautical Twilight 6:40 AM EST 6:32 PM EST
Astronomical Twilight 6:10 AM EST 7:02 PM EST
Moon 9:38 PM EST (12/21) 10:14 AM EST (12/21)
Length of Visible Light 10h 48m
Length of Day
9h 53m
Waning Gibbous, 84% of the Moon is Illuminated
Dec 21
Waning Gibbous
Dec 25
Last Quarter
Jan 1
New
Jan 7
First Quarter
Jan 15
Full

Hourly Weather History & Observations

Time (EST) Temp. Dew Point Humidity Pressure Visibility Wind Dir Wind Speed Gust Speed Precip Events Conditions
6:47 AM 55.4 °F 51.8 °F 88% 30.07 in 3.0 mi East 9.2 mph - N/A   Overcast
7:47 AM 57.2 °F 55.4 °F 94% 30.06 in 2.0 mi SE 8.1 mph - N/A   Overcast
8:47 AM 59.0 °F 55.4 °F 88% 30.06 in 3.0 mi SSE 9.2 mph 17.3 mph N/A   Scattered Clouds
9:10 AM 59.0 °F 55.4 °F 88% 30.05 in - East 8.1 mph - N/A Rain Light Rain
9:47 AM 59.0 °F 57.2 °F 94% 30.05 in 2.0 mi SSE 6.9 mph - N/A   Mist
10:47 AM 62.6 °F 59.0 °F 88% 30.05 in 2.0 mi South 11.5 mph 17.3 mph N/A   Mist
11:47 AM 64.4 °F 60.8 °F 88% 30.02 in 2.0 mi South 11.5 mph 17.3 mph N/A   Mist
12:47 PM 66.2 °F 60.8 °F 83% 29.98 in 4.0 mi South 9.2 mph 18.4 mph N/A   Mist
1:15 PM 66.2 °F 60.8 °F 83% 29.97 in 5.0 mi SSE 6.9 mph - N/A   Mist
1:48 PM 66.2 °F 62.6 °F 88% 29.96 in 7.0 mi SSE 4.6 mph - N/A   Mist
2:47 PM 68.0 °F 62.6 °F 83% 29.96 in 7.0 mi South 8.1 mph - N/A   Unknown
3:47 PM 69.8 °F 62.6 °F 78% 29.96 in 7.0 mi SSE 9.2 mph - N/A   Overcast
4:47 PM 69.8 °F 62.6 °F 78% 29.96 in 7.0 mi SSE 10.4 mph - N/A   Mostly Cloudy
5:50 PM 68.0 °F 62.6 °F 83% 29.95 in 10.0 mi South 10.4 mph 17.3 mph N/A   Overcast
6:50 PM 69.8 °F 62.6 °F 78% 29.97 in 10.0 mi South 13.8 mph 16.1 mph N/A   Overcast
7:55 PM 69.8 °F 62.6 °F 78% 29.95 in 10.0 mi South 8.1 mph 17.3 mph N/A   Overcast
8:50 PM 69.8 °F 62.6 °F 78% 29.94 in 10.0 mi South 11.5 mph 23.0 mph N/A   Overcast
9:47 PM 69.8 °F 62.6 °F 78% 29.95 in 10.0 mi South 8.1 mph 18.4 mph N/A   Overcast
10:47 PM 68.0 °F 62.6 °F 83% 29.95 in 5.0 mi South 11.5 mph 17.3 mph N/A Rain Light Rain